Volver al catálogo

STARLINK-5932

ActivoComunicacionesVLEO
NORAD 55943·PAYLOAD·🇺🇸 United States

Lanzado Mar 17, 2023 desde Vandenberg Space Force Base

Loading…

Próximos Pases (próximas 24 horas)

TLE

ActualizadoSource: CelesTrak SupGP

Época: Sep 15, 2026, 02:17 UTC

1 55943C 23037AF  26258.09562500  .00200940  00000+0  15936-1 0  2588
2 55943  70.0000 166.7704 0003051 273.4723 109.6296 15.00349327    11

Sigue STARLINK-5932 en tiempo real con AllMySat

Download on the App Store